Regional Weather Roundup
Issued by NWS

Home | Current Version | Previous Version | Text Only | Print | Product List | Glossary On
Versions: 1 2 3 4 5 6 7 8 9 10 11 12 13 14 15 16 17 18 19 20 21 22 23 24 25 26 27 28 29 30 31 32 33 34 35 36 37 38 39 40 41 42 43 44 45 46 47 48 49 50
000
ASUS44 KLIX 180810
RWRLA
LOUISIANA WEATHER ROUNDUP
NATIONAL WEATHER SERVICE NEW ORLEANS LA
200 AM CST THU DEC 18 2014

NOTE: "FAIR" INDICATES FEW OR NO CLOUDS BELOW 12,000 FEET WITH NO
      SIGNIFICANT WEATHER AND/OR OBSTRUCTIONS TO VISIBILITY.
      SKY/WX - SKY CONDITION AND SIGNIFICANT WEATHER.
      TMP - AIR TEMPERATURE.    DP   - DEWPOINT TEMPERATURE.
      RH  - RELATIVE HUMIDITY.  PRES - PRESSURE.
      HX  - HEAT INDEX.         WCI  - WIND CHILL INDEX.

*  THESE STATIONS ARE NOT NWS OR FAA STATIONS AND ARE NOT UNDER
   NWS QUALITY CONTROL.

LAZ040-048-061>063-065-066-069-180900-
SOUTHEAST LOUISIANA

CITY           SKY/WX    TMP DP  RH WIND       PRES   REMARKS
N.O. AUDUBON     N/A     53  47  82 MISG        N/A
N.O. INTL ARPT CLOUDY    50  41  71 CALM      30.17S
N.O. LAKEFRONT MOCLDY    54  47  77 E5        30.17F
N.O. DOWNTOWN* FAIR      55  43  62 SE3       30.17S
SLIDELL        PTCLDY    44  40  85 CALM      30.18R
BATON ROUGE    CLOUDY    45  42  89 W3        30.19R
BOOTHVILLE     MOCLDY    55  50  83 E6        30.16F
BELLE CHASSE   MOCLDY    48  44  86 E5        30.16F
BOGALUSA*        N/A     44  41  90 N3        30.21R
GALLIANO*      PTSUNNY   55  49  79 MISG      30.16S
NEW ROADS*     FAIR      46  43  91 E5        30.18F
GONZALES*      FAIR      45  45  98 CALM      30.18R
HAMMOND*       NOT AVBL
HOUMA*         MOCLDY    49  47  93 CALM      30.17R
PORT FOURCHON* MOSUNNY   59  54  82 E9        30.18F

$$

LAZ041-044-053-054-180900-
SOUTHWEST LOUISIANA

CITY           SKY/WX    TMP DP  RH WIND       PRES   REMARKS
LAKE CHARLES   CLOUDY    53  49  86 E6        30.13F
LAFAYETTE      MOCLDY    49  42  77 CALM      30.17S
PATTERSON      MOCLDY    48  45  87 NE3       30.17F
SALT POINT       N/A     54  48  80 E3        30.15F
NEW IBERIA     MOCLDY    50  44  80 E5        30.17F
CHENAULT AIRPK MOCLDY    51  47  86 E6        30.14S

$$

LAZ027-028-180900-
CENTRAL LOUISIANA

CITY           SKY/WX    TMP DP  RH WIND       PRES   REMARKS
FORT POLK      CLOUDY    52  43  70 E5        30.14F
ALEXANDRIA INT CLOUDY    50  43  77 CALM      30.16S
ALEXANDRIA     CLOUDY    50  42  74 E3        30.17F

$$

LAZ001-002-180900-
NORTHWEST LOUISIANA

CITY           SKY/WX    TMP DP  RH WIND       PRES   REMARKS
SHREVEPORT     LGT RAIN  45  43  93 E9        30.16F
BARKSDALE AFB  NOT AVBL
DTN SHREVEPORT LGT RAIN  44  41  89 E8        30.17F

$$

LAZ014-016-180900-
NORTHEAST LOUISIANA

CITY           SKY/WX    TMP DP  RH WIND       PRES   REMARKS
MONROE         CLOUDY    45  41  86 NE8       30.23R
TALLULAH       CLOUDY    46  39  76 N6        30.22R

$$




USA.gov is the U.S. government's official web portal to all federal, state and local government web resources and services.